[[{"header":{"parameterUnit":"m.s-1","parameterCategory":1,"la1":30.2991,"la2":30.254,"lo1":-89.0895,"lo2":-89.0444,"dy":0.0017,"dx":0.0017,"nx":28,"ny":28,"refTime":"2023-09-13T09:00:00:Z","depth":0,"parameterNumber":2,"parameterNumberName":"U-component_of_WINDS"},"data":[0,0,0,0,0,0,0,0,0,0,0,0,0,0,0,0,0,0,0,0,0,0,0,0,0,0,0,0,0,0,0,0,0,0,0,0,0,0,0,0,0,0,0,0,0,0,0,0,0,0,0,0,0,0,0,0,0,0,-0.5253,-0.5254,0,-0.5292,-0.5292,-0.5292,-0.5389,-0.5391,-0.5394,-0.5395,-0.543,-0.5429,-0.5428,0,0,0,0,0,0,0,0,0,0,0,0,0,-0.526,-0.526,-0.5253,-0.5254,-0.5254,-0.5292,-0.5292,-0.5293,-0.5389,-0.5392,-0.5394,-0.5396,-0.5431,-0.543,-0.5428,0,0,0,0,0,0,0,0,0,0,0,0,0,-0.5273,-0.5259,-0.5253,-0.5307,-0.5312,-0.5291,-0.5292,-0.5293,-0.5389,-0.5392,-0.5395,-0.5398,-0.5431,-0.543,-0.5428,-0.5357,0,0,-0.5424,-0.5423,0,0,0,0,0,0,0,0,-0.5273,-0.5273,-0.5299,-0.5303,-0.5309,-0.5339,-0.5307,-0.5314,-0.5388,-0.5359,-0.5396,-0.5399,-0.5397,-0.5399,-0.5399,-0.5359,-0.536,-0.5423,-0.5423,-0.5422,-0.5421,0,0,0,0,0,0,0,-0.5272,-0.5272,-0.5268,-0.5299,-0.5305,-0.5328,-0.5333,-0.5309,-0.536,-0.5362,-0.5369,-0.5373,-0.5401,-0.54,-0.54,-0.5361,-0.5424,-0.5422,-0.5421,-0.5421,-0.5261,-0.5258,0,0,0,0,0,0,-0.5263,-0.5271,-0.5267,-0.527,-0.5298,-0.5325,-0.5331,-0.5326,-0.5361,-0.5369,-0.537,-0.5377,-0.5401,-0.5402,-0.5402,-0.5318,-0.5422,-0.5421,-0.542,-0.5264,-0.526,-0.5257,0,0,0,0,0,0,-0.5263,-0.5262,-0.5266,-0.5272,-0.5274,-0.5322,-0.5315,-0.5325,-0.5325,-0.5367,-0.5376,-0.536,-0.5404,-0.5404,-0.5367,-0.5321,-0.542,-0.5418,-0.5268,-0.5263,-0.5258,-0.5151,0,0,0,0,0,0,-0.5263,-0.5262,-0.5236,-0.5271,-0.5274,-0.5231,-0.5313,-0.5324,-0.5323,-0.5332,-0.536,-0.5368,-0.5406,-0.5369,-0.5366,-0.532,-0.5417,-0.5272,-0.5266,-0.526,-0.5158,-0.5142,-0.5129,0,0,0,0,0,-0.5263,-0.5204,-0.5234,-0.5233,-0.5243,-0.5228,-0.5229,-0.5276,-0.5319,-0.5292,-0.5319,-0.5367,-0.5327,-0.5364,-0.5361,-0.5315,-0.5276,-0.5268,-0.526,-0.5165,-0.5146,-0.5129,0,0,0,0,0,0,-0.516,-0.5209,-0.5243,-0.5194,-0.5206,-0.5244,-0.5212,-0.5254,-0.5254,-0.5262,-0.5319,-0.5325,-0.5279,-0.5294,-0.5334,-0.5247,-0.5309,-0.5301,-0.5237,-0.5219,-0.5205,-0.52,-0.5416,0,0,0,0,0,-0.5132,-0.5118,-0.5161,-0.5113,-0.5118,-0.5164,-0.5159,-0.5194,-0.5209,-0.5214,-0.5238,-0.5249,-0.5239,-0.5231,-0.5224,-0.5163,-0.5168,-0.513,-0.5115,-0.5103,-0.5093,-0.5058,-0.504,-0.5232,-0.5232,-0.5232,0,0,-0.5073,-0.5098,-0.5085,-0.5093,-0.5107,-0.5088,-0.5167,-0.5145,-0.5131,-0.521,-0.5176,-0.5194,-0.521,-0.516,-0.5139,-0.5171,-0.5042,-0.5093,-0.5083,-0.508,-0.5048,-0.503,-0.5014,-0.5227,-0.5228,-0.5228,0,0,-0.4955,-0.4975,-0.4935,-0.4948,-0.4968,-0.4999,-0.499,-0.5022,-0.5037,-0.5004,-0.5062,-0.5047,-0.5029,-0.5037,-0.5039,-0.4925,-0.4967,-0.4921,-0.4842,-0.4807,-0.4792,-0.4779,-0.4734,-0.4718,-0.4913,-0.4913,-0.4912,0,-0.4878,-0.4855,-0.4909,-0.4883,-0.4883,-0.4956,-0.4915,-0.4925,-0.4941,-0.4938,-0.4975,-0.4953,-0.497,-0.492,-0.4892,-0.4893,-0.4881,-0.4916,-0.4791,-0.4778,-0.4766,-0.4724,-0.4707,-0.4906,-0.4907,-0.4908,-0.4908,0,-0.4757,-0.474,-0.4706,-0.472,-0.4717,-0.4684,-0.4732,-0.4722,-0.4758,-0.4785,-0.4749,-0.4772,-0.4769,-0.4762,-0.4796,-0.4716,-0.4735,-0.4781,-0.4844,-0.4741,-0.4701,-0.4686,-0.4898,-0.49,-0.4902,-0.4903,0,0,-0.4572,-0.4619,-0.4604,-0.4611,-0.4639,-0.4625,-0.4595,-0.4594,-0.4583,-0.4593,-0.4566,-0.455,-0.4592,-0.4594,-0.463,-0.4601,-0.4504,-0.465,-0.4651,-0.4617,-0.4412,-0.4374,-0.4354,-0.4535,-0.4532,-0.453,-0.4409,0,-0.4457,-0.4408,-0.4456,-0.4396,-0.4379,-0.4449,-0.4422,-0.4435,-0.446,-0.4448,-0.4475,-0.4461,-0.452,-0.4521,-0.4495,-0.4521,-0.4462,-0.4531,-0.4506,-0.4504,-0.4494,-0.4335,-0.4295,-0.418,-0.4395,-0.4392,-0.4391,0,-0.4316,-0.4319,-0.4257,-0.4288,-0.4282,-0.4257,-0.4259,-0.4248,-0.4264,-0.4284,-0.4287,-0.4332,-0.4302,-0.4367,-0.4325,-0.437,-0.4364,-0.4375,-0.4372,-0.4367,-0.4437,-0.432,-0.4145,-0.4125,-0.4368,-0.437,-0.4371,0,-0.418,-0.417,-0.4131,-0.4135,-0.4172,-0.4151,-0.4165,-0.4185,-0.4181,-0.4183,-0.418,-0.4179,-0.4176,-0.4173,-0.4216,-0.426,-0.4166,-0.4236,-0.4179,-0.4177,-0.4151,-0.4151,-0.3966,-0.4156,-0.4156,-0.4156,-0.4157,0,-0.4044,-0.4002,-0.407,-0.4045,-0.4,-0.4057,-0.401,-0.4032,-0.4049,-0.4027,-0.409,-0.4068,-0.4128,-0.4113,-0.4147,-0.4104,-0.4104,-0.4116,-0.4124,-0.4107,-0.4105,-0.41,-0.4106,-0.4152,-0.4153,-0.4154,-0.4154,0,-0.3883,-0.3928,-0.3889,-0.3927,-0.3936,-0.39,-0.3932,-0.391,-0.394,-0.3912,-0.3909,-0.3955,-0.394,-0.3984,-0.3976,-0.3998,-0.3935,-0.3959,-0.3928,-0.3934,-0.3871,-0.3874,-0.3672,-0.3647,-0.3857,-0.3855,-0.3854,0,-0.379,-0.3759,-0.3795,-0.3786,-0.3796,-0.3782,-0.3778,-0.3834,-0.3827,-0.3843,-0.3817,-0.3808,-0.3803,-0.3775,-0.3806,-0.38,-0.3821,-0.3751,-0.382,-0.3802,-0.3813,-0.3812,-0.3807,-0.3734,-0.3732,-0.3729,-0.3728,0,-0.3618,-0.3642,-0.3635,-0.3635,-0.3629,-0.3632,-0.3639,-0.3628,-0.3687,-0.3676,-0.3662,-0.3658,-0.365,-0.3638,-0.3639,-0.3652,-0.3697,-0.3707,-0.3692,-0.3671,-0.3652,-0.3656,-0.3883,-0.371,-0.3711,-0.3713,-0.3714,-0.3714,-0.3485,-0.346,-0.348,-0.347,-0.3481,-0.3486,-0.3466,-0.3494,-0.3484,-0.3482,-0.3516,-0.3494,-0.351,-0.3516,-0.3524,-0.3506,-0.3538,-0.3518,-0.3512,-0.3504,-0.3491,-0.3661,-0.3507,-0.3508,-0.3508,-0.3509,-0.3509,0,-0.3312,-0.3329,-0.3319,-0.3327,-0.3318,-0.3367,-0.3377,-0.3365,-0.3345,-0.3358,-0.3352,-0.3334,-0.3323,-0.3355,-0.3348,-0.3327,-0.3347,-0.3323,-0.3322,-0.3323,-0.3466,-0.3477,-0.3306,-0.3306,-0.3306,-0.3306,-0.3306,-0.3306,-0.322,-0.3179,-0.3205,-0.317,-0.3188,-0.3167,-0.3168,-0.3172,-0.3182,-0.316,-0.3152,-0.3173,-0.3192,-0.3187,-0.3178,-0.3188,-0.318,-0.3146,-0.3162,-0.3294,-0.3313,-0.3332,-0.3342,-0.3146,-0.3145,-0.302,-0.3019,-0.3018]},{"header":{"parameterUnit":"m.s-1","parameterCategory":1,"la1":30.2991,"la2":30.254,"lo1":-89.0895,"lo2":-89.0444,"dy":0.0017,"dx":0.0017,"nx":28,"ny":28,"refTime":"2023-09-13T09:00:00:Z","depth":0,"parameterNumber":3,"parameterNumberName":"V-component_of_WINDS"},"data":[0,0,0,0,0,0,0,0,0,0,0,0,0,0,0,0,0,0,0,0,0,0,0,0,0,0,0,0,0,0,0,0,0,0,0,0,0,0,0,0,0,0,0,0,0,0,0,0,0,0,0,0,0,0,0,0,0,0,-1.494,-1.4941,0,-1.4972,-1.4972,-1.4973,-1.5004,-1.5004,-1.5004,-1.5005,-1.5035,-1.5036,-1.5036,0,0,0,0,0,0,0,0,0,0,0,0,0,-1.4905,-1.4905,-1.494,-1.4941,-1.4941,-1.4972,-1.4972,-1.4973,-1.5004,-1.5004,-1.5005,-1.5005,-1.5035,-1.5036,-1.5036,0,0,0,0,0,0,0,0,0,0,0,0,0,-1.4927,-1.4906,-1.494,-1.496,-1.4962,-1.4972,-1.4972,-1.4973,-1.5004,-1.5004,-1.5005,-1.5005,-1.5035,-1.5036,-1.5036,-1.5028,0,0,-1.5038,-1.5039,0,0,0,0,0,0,0,0,-1.4925,-1.4928,-1.4957,-1.4959,-1.4961,-1.4985,-1.4971,-1.4991,-1.5003,-1.4988,-1.5005,-1.5006,-1.5018,-1.502,-1.5024,-1.5029,-1.5031,-1.5038,-1.5039,-1.5039,-1.5039,0,0,0,0,0,0,0,-1.4924,-1.4927,-1.4953,-1.4957,-1.496,-1.4967,-1.4971,-1.4975,-1.4999,-1.4989,-1.4992,-1.4995,-1.5019,-1.5024,-1.5025,-1.5031,-1.5038,-1.5039,-1.5039,-1.504,-1.5031,-1.503,0,0,0,0,0,0,-1.492,-1.4925,-1.4952,-1.4954,-1.4945,-1.4967,-1.4972,-1.4976,-1.4999,-1.5003,-1.4994,-1.4996,-1.5022,-1.5025,-1.5027,-1.5018,-1.5039,-1.504,-1.504,-1.5031,-1.5031,-1.503,0,0,0,0,0,0,-1.4919,-1.4922,-1.4951,-1.494,-1.4944,-1.4967,-1.4972,-1.4977,-1.4981,-1.5003,-1.5007,-1.4995,-1.5023,-1.5026,-1.5028,-1.5019,-1.504,-1.504,-1.5032,-1.5031,-1.503,-1.5001,0,0,0,0,0,0,-1.4918,-1.4921,-1.4918,-1.494,-1.4945,-1.4951,-1.4972,-1.4977,-1.4983,-1.4985,-1.5004,-1.5008,-1.5024,-1.5026,-1.5028,-1.5021,-1.5041,-1.5033,-1.5032,-1.5031,-1.5002,-1.4999,-1.4996,0,0,0,0,0,-1.4916,-1.4908,-1.4918,-1.4921,-1.4942,-1.4951,-1.4953,-1.4972,-1.4982,-1.4979,-1.4993,-1.5008,-1.502,-1.5026,-1.5029,-1.5021,-1.5034,-1.5032,-1.5031,-1.5004,-1.4999,-1.4996,0,0,0,0,0,0,-1.4884,-1.4912,-1.4923,-1.4922,-1.4934,-1.4956,-1.4953,-1.4967,-1.4975,-1.4978,-1.5,-1.5004,-1.5003,-1.5013,-1.5019,-1.5014,-1.5029,-1.5028,-1.5008,-1.5004,-1.5001,-1.4998,-1.5041,0,0,0,0,0,-1.4878,-1.4883,-1.4906,-1.4903,-1.4909,-1.493,-1.4934,-1.4947,-1.496,-1.4965,-1.498,-1.4991,-1.4998,-1.5002,-1.5009,-1.5005,-1.5009,-1.5001,-1.4997,-1.4994,-1.4993,-1.4991,-1.4987,-1.5025,-1.5026,-1.5026,0,0,-1.4863,-1.4878,-1.488,-1.4897,-1.4908,-1.4912,-1.4934,-1.4937,-1.494,-1.4966,-1.4968,-1.4979,-1.4994,-1.4992,-1.4992,-1.5,-1.4983,-1.4993,-1.499,-1.499,-1.4989,-1.4985,-1.4982,-1.5025,-1.5025,-1.5025,0,0,-1.4838,-1.4851,-1.4849,-1.486,-1.4877,-1.4891,-1.4891,-1.4911,-1.4919,-1.4923,-1.4942,-1.4946,-1.4957,-1.4966,-1.4973,-1.4952,-1.4966,-1.4954,-1.4936,-1.4934,-1.4931,-1.4928,-1.492,-1.4917,-1.4953,-1.4953,-1.4953,0,-1.4817,-1.4825,-1.4847,-1.4849,-1.4856,-1.488,-1.4879,-1.4888,-1.4906,-1.4909,-1.4918,-1.4933,-1.4945,-1.4945,-1.4941,-1.4945,-1.4945,-1.4951,-1.493,-1.4927,-1.4925,-1.4918,-1.4915,-1.4951,-1.4952,-1.4952,-1.4952,0,-1.4798,-1.4804,-1.48,-1.4818,-1.4824,-1.4825,-1.4846,-1.485,-1.4863,-1.4876,-1.4879,-1.4894,-1.4905,-1.4906,-1.4919,-1.4909,-1.4913,-1.4926,-1.4941,-1.492,-1.4913,-1.491,-1.4949,-1.495,-1.495,-1.495,0,0,-1.4752,-1.4783,-1.4781,-1.4789,-1.481,-1.4814,-1.4816,-1.4827,-1.483,-1.4842,-1.4843,-1.4852,-1.4864,-1.4871,-1.4885,-1.4884,-1.4866,-1.4896,-1.4897,-1.4889,-1.4855,-1.4844,-1.4841,-1.4876,-1.4875,-1.4875,-1.4854,0,-1.473,-1.4735,-1.4755,-1.4754,-1.4758,-1.4782,-1.4784,-1.4796,-1.4809,-1.4814,-1.4829,-1.4834,-1.485,-1.4854,-1.4854,-1.4868,-1.4859,-1.487,-1.4876,-1.4876,-1.487,-1.4838,-1.4826,-1.4805,-1.4851,-1.4851,-1.485,0,-1.4704,-1.4715,-1.4714,-1.4735,-1.4738,-1.4739,-1.4751,-1.4757,-1.4771,-1.4781,-1.4789,-1.4805,-1.4808,-1.4823,-1.4827,-1.4834,-1.4838,-1.4845,-1.4845,-1.4845,-1.4861,-1.4835,-1.4799,-1.4795,-1.4847,-1.4847,-1.4847,0,-1.467,-1.4684,-1.4686,-1.4692,-1.4717,-1.4717,-1.4727,-1.4743,-1.4748,-1.4759,-1.4762,-1.4773,-1.4778,-1.4786,-1.4804,-1.4814,-1.4806,-1.4823,-1.4813,-1.4812,-1.4808,-1.4808,-1.4771,-1.4813,-1.4813,-1.4813,-1.4814,0,-1.4642,-1.464,-1.467,-1.4671,-1.467,-1.4693,-1.4691,-1.4704,-1.4717,-1.472,-1.4742,-1.4744,-1.477,-1.4775,-1.4789,-1.479,-1.4792,-1.4799,-1.4803,-1.4796,-1.4795,-1.4798,-1.4799,-1.4813,-1.4813,-1.4813,-1.4813,0,-1.4602,-1.4622,-1.4625,-1.4649,-1.4655,-1.4653,-1.4673,-1.4674,-1.4689,-1.4693,-1.4695,-1.4717,-1.4725,-1.4745,-1.4757,-1.4767,-1.4762,-1.477,-1.4757,-1.4759,-1.4748,-1.4748,-1.471,-1.4705,-1.4752,-1.4751,-1.4751,0,-1.4581,-1.4581,-1.4605,-1.4609,-1.4618,-1.4625,-1.4631,-1.4654,-1.4659,-1.4677,-1.4676,-1.4685,-1.4693,-1.4704,-1.4721,-1.473,-1.4738,-1.4724,-1.4739,-1.4732,-1.4736,-1.4735,-1.4735,-1.4719,-1.4719,-1.4718,-1.4718,0,-1.4543,-1.4554,-1.4562,-1.4574,-1.4581,-1.4591,-1.4603,-1.4605,-1.4631,-1.4636,-1.4644,-1.465,-1.4664,-1.4672,-1.4684,-1.4695,-1.471,-1.4713,-1.4711,-1.4704,-1.4696,-1.4699,-1.4746,-1.4714,-1.4714,-1.4714,-1.4715,-1.4715,-1.4512,-1.4512,-1.4529,-1.4538,-1.4549,-1.456,-1.4562,-1.4578,-1.4585,-1.4598,-1.4611,-1.4618,-1.4633,-1.4651,-1.4661,-1.4666,-1.4674,-1.4671,-1.467,-1.4669,-1.4665,-1.4697,-1.4668,-1.4668,-1.4668,-1.4669,-1.4669,0,-1.4473,-1.4486,-1.4494,-1.451,-1.4516,-1.4532,-1.4546,-1.455,-1.4556,-1.4569,-1.4578,-1.4587,-1.4596,-1.4614,-1.4624,-1.4625,-1.4632,-1.4626,-1.4626,-1.4628,-1.4658,-1.4658,-1.462,-1.462,-1.462,-1.462,-1.462,-1.462,-1.4454,-1.4456,-1.4468,-1.4476,-1.4488,-1.4495,-1.4502,-1.4511,-1.4522,-1.4532,-1.4539,-1.4552,-1.4567,-1.4579,-1.4587,-1.4593,-1.4595,-1.4586,-1.4594,-1.4621,-1.4626,-1.463,-1.463,-1.4587,-1.4587,-1.4563,-1.4563,-1.4562]}]]